Time,TemperatureF,DewpointF,PressureIn,WindDirection,WindDirectionDegrees,WindSpeedMPH,WindSpeedGustMPH,Humidity,HourlyPrecipIn,Conditions,Clouds,dailyrainin,SoftwareType,DateUTC
2013-06-03 00:01:00,68.2,62.9,29.99,WSW,248,2.5,4.7,83,0.01,,,0.00,WUHU216HW,2013-06-03 04:01:00,
2013-06-03 00:02:00,68.2,62.9,29.99,WSW,248,2.5,4.7,83,0.01,,,0.00,WUHU216HW,2013-06-03 04:02:00,
2013-06-03 00:07:00,68.2,62.9,29.99,SW,225,0.4,4.7,83,0.01,,,0.00,WUHU216HW,2013-06-03 04:07:00,
2013-06-03 00:12:00,68.2,62.9,29.98,WSW,248,4.3,4.3,83,0.01,,,0.00,WUHU216HW,2013-06-03 04:12:00,
2013-06-03 00:17:00,68.2,62.9,29.98,SW,225,1.1,4.3,83,0.01,,,0.00,WUHU216HW,2013-06-03 04:17:00,
2013-06-03 00:22:00,68.2,62.9,29.98,NE,45,1.8,4.3,83,0.01,,,0.00,WUHU216HW,2013-06-03 04:22:00,
2013-06-03 00:27:00,68.4,62.7,29.99,WSW,248,1.1,2.5,82,0.00,,,0.00,WUHU216HW,2013-06-03 04:27:00,
2013-06-03 00:32:00,68.4,62.7,30.00,NW,315,0.4,2.2,82,0.00,,,0.00,WUHU216HW,2013-06-03 04:32:00,
2013-06-03 00:37:00,68.6,62.9,29.99,SW,225,0.7,1.6,82,0.00,,,0.00,WUHU216HW,2013-06-03 04:37:00,
2013-06-03 00:42:00,68.6,62.9,30.00,SW,225,1.1,2.7,82,0.00,,,0.00,WUHU216HW,2013-06-03 04:42:00,
2013-06-03 00:47:00,68.8,63.1,30.00,SW,225,3.4,3.4,82,0.00,,,0.00,WUHU216HW,2013-06-03 04:47:00,
2013-06-03 00:53:00,68.9,63.2,30.00,WSW,248,0.4,3.4,82,0.00,,,0.00,WUHU216HW,2013-06-03 04:53:00,
2013-06-03 00:58:00,68.9,63.2,30.01,SW,225,2.5,3.1,82,0.00,,,0.00,WUHU216HW,2013-06-03 04:58:00,
2013-06-03 01:03:00,68.8,63.1,30.01,SW,225,3.6,3.6,82,0.00,,,0.00,WUHU216HW,2013-06-03 05:03:00,
2013-06-03 01:08:00,68.8,63.1,30.02,SW,225,2.7,3.6,82,0.00,,,0.00,WUHU216HW,2013-06-03 05:08:00,
2013-06-03 01:13:00,68.8,63.1,30.02,SSE,158,1.8,3.6,82,0.00,,,0.00,WUHU216HW,2013-06-03 05:13:00,
2013-06-03 01:18:00,68.8,63.1,30.02,South,180,2.0,3.4,82,0.01,,,0.02,WUHU216HW,2013-06-03 05:18:00,
2013-06-03 01:23:00,68.4,62.7,30.02,WNW,293,3.4,3.4,82,0.01,,,0.02,WUHU216HW,2013-06-03 05:23:00,
2013-06-03 01:28:00,68.4,62.7,30.01,SW,225,2.0,3.4,82,0.01,,,0.02,WUHU216HW,2013-06-03 05:28:00,
2013-06-03 01:33:00,68.4,62.7,30.01,WSW,248,0.7,3.4,82,0.01,,,0.02,WUHU216HW,2013-06-03 05:33:00,
2013-06-03 01:38:00,68.2,62.9,30.01,WSW,248,1.3,2.0,83,0.01,,,0.02,WUHU216HW,2013-06-03 05:38:00,
2013-06-03 01:43:00,68.0,62.7,30.01,SW,225,0.4,1.3,83,0.01,,,0.02,WUHU216HW,2013-06-03 05:43:00,
2013-06-03 01:48:00,68.0,62.7,30.01,SW,225,0.4,1.3,83,0.03,,,0.03,WUHU216HW,2013-06-03 05:48:00,
2013-06-03 01:53:00,68.0,62.7,30.01,SW,225,0.9,0.9,83,0.04,,,0.05,WUHU216HW,2013-06-03 05:53:00,
2013-06-03 01:58:00,67.9,62.8,30.00,NNW,338,1.1,1.1,84,0.05,,,0.05,WUHU216HW,2013-06-03 05:58:00,
2013-06-03 02:03:00,67.9,62.8,30.00,WNW,293,0.4,2.9,84,0.05,,,0.05,WUHU216HW,2013-06-03 06:03:00,
2013-06-03 02:08:00,67.7,62.6,30.00,SW,225,0.4,2.9,84,0.05,,,0.05,WUHU216HW,2013-06-03 06:08:00,
2013-06-03 02:13:00,67.5,62.5,30.00,West,270,0.2,0.4,84,0.05,,,0.05,WUHU216HW,2013-06-03 06:13:00,
2013-06-03 02:18:00,67.5,62.5,29.99,SSW,203,0.7,0.7,84,0.05,,,0.05,WUHU216HW,2013-06-03 06:18:00,
2013-06-03 02:23:00,67.5,62.5,29.99,SW,225,0.9,1.6,84,0.05,,,0.07,WUHU216HW,2013-06-03 06:23:00,
2013-06-03 02:28:00,67.5,62.8,30.00,SSW,203,0.7,1.6,85,0.05,,,0.07,WUHU216HW,2013-06-03 06:28:00,
2013-06-03 02:33:00,67.5,62.8,29.99,SW,225,0.2,0.9,85,0.05,,,0.07,WUHU216HW,2013-06-03 06:33:00,
2013-06-03 02:38:00,67.5,62.8,30.00,SW,225,0.0,0.7,85,0.05,,,0.07,WUHU216HW,2013-06-03 06:38:00,
2013-06-03 02:43:00,67.5,62.8,30.00,SW,225,0.0,0.2,85,0.05,,,0.07,WUHU216HW,2013-06-03 06:43:00,
2013-06-03 02:49:00,67.5,62.8,30.00,West,270,0.0,0.9,85,0.02,,,0.07,WUHU216HW,2013-06-03 06:49:00,
2013-06-03 02:54:00,67.5,62.8,30.00,WSW,248,0.7,0.9,85,0.03,,,0.07,WUHU216HW,2013-06-03 06:54:00,
2013-06-03 02:59:00,67.7,63.0,29.99,West,270,0.7,0.7,85,0.02,,,0.07,WUHU216HW,2013-06-03 06:59:00,
2013-06-03 03:04:00,67.5,62.8,29.99,North,0,0.4,0.9,85,0.02,,,0.07,WUHU216HW,2013-06-03 07:04:00,
2013-06-03 03:10:00,67.5,62.8,29.99,NW,315,0.0,1.8,85,0.02,,,0.07,WUHU216HW,2013-06-03 07:10:00,
2013-06-03 03:15:00,67.5,62.8,29.99,WSW,248,0.7,1.8,85,0.02,,,0.07,WUHU216HW,2013-06-03 07:15:00,
2013-06-03 03:21:00,67.5,62.8,29.99,WSW,248,0.0,1.1,85,0.02,,,0.09,WUHU216HW,2013-06-03 07:21:00,
2013-06-03 03:26:00,67.5,63.2,29.99,WSW,248,1.1,1.1,86,0.02,,,0.09,WUHU216HW,2013-06-03 07:26:00,
2013-06-03 03:33:00,67.3,63.0,29.98,WSW,248,0.4,1.1,86,0.02,,,0.09,WUHU216HW,2013-06-03 07:33:00,
2013-06-03 03:38:00,67.3,63.0,29.99,West,270,0.0,0.9,86,0.02,,,0.09,WUHU216HW,2013-06-03 07:38:00,
2013-06-03 03:43:00,67.5,63.2,29.99,SSW,203,0.4,0.7,86,0.02,,,0.09,WUHU216HW,2013-06-03 07:43:00,
2013-06-03 03:48:00,67.3,63.0,29.99,SW,225,0.0,0.9,86,0.02,,,0.09,WUHU216HW,2013-06-03 07:48:00,
2013-06-03 03:54:00,67.5,63.2,29.99,SSW,203,0.2,0.9,86,0.01,,,0.09,WUHU216HW,2013-06-03 07:54:00,
2013-06-03 03:59:00,67.3,63.0,29.98,SSW,203,0.0,0.4,86,0.02,,,0.10,WUHU216HW,2013-06-03 07:59:00,
2013-06-03 04:04:00,67.3,63.0,29.98,SW,225,0.0,0.0,86,0.02,,,0.10,WUHU216HW,2013-06-03 08:04:00,
2013-06-03 04:09:00,67.3,63.0,29.98,SW,225,0.0,0.0,86,0.02,,,0.10,WUHU216HW,2013-06-03 08:09:00,
2013-06-03 04:31:00,67.5,63.2,29.98,SE,135,0.0,0.0,86,0.01,,,0.10,WUHU216HW,2013-06-03 08:31:00,
2013-06-03 04:36:00,67.5,63.2,29.98,ESE,113,0.2,0.2,86,0.01,,,0.10,WUHU216HW,2013-06-03 08:36:00,
2013-06-03 04:41:00,67.3,63.0,29.98,SE,135,0.0,0.2,86,0.01,,,0.10,WUHU216HW,2013-06-03 08:41:00,
2013-06-03 04:46:00,67.5,63.2,29.99,SE,135,0.0,0.2,86,0.01,,,0.10,WUHU216HW,2013-06-03 08:46:00,
2013-06-03 04:52:00,67.3,62.6,29.99,SW,225,0.9,0.9,85,0.00,,,0.10,WUHU216HW,2013-06-03 08:52:00,
2013-06-03 04:57:00,67.3,63.0,29.99,SW,225,0.9,0.9,86,0.02,,,0.11,WUHU216HW,2013-06-03 08:57:00,
2013-06-03 05:02:00,67.3,62.6,29.99,WNW,293,0.7,0.9,85,0.10,,,0.20,WUHU216HW,2013-06-03 09:02:00,
2013-06-03 05:07:00,67.3,62.6,29.99,WSW,248,0.9,0.9,85,0.17,,,0.27,WUHU216HW,2013-06-03 09:07:00,
2013-06-03 05:12:00,67.3,62.6,29.99,SW,225,0.4,0.9,85,0.21,,,0.31,WUHU216HW,2013-06-03 09:12:00,
2013-06-03 05:17:00,67.3,62.6,29.99,SSW,203,2.5,2.5,85,0.22,,,0.32,WUHU216HW,2013-06-03 09:17:00,
2013-06-03 05:22:00,67.3,62.6,29.99,WSW,248,0.4,2.5,85,0.24,,,0.34,WUHU216HW,2013-06-03 09:22:00,
2013-06-03 05:27:00,67.3,62.6,29.99,West,270,0.4,2.5,85,0.24,,,0.34,WUHU216HW,2013-06-03 09:27:00,
2013-06-03 05:32:00,67.3,62.6,29.99,West,270,0.0,0.7,85,0.24,,,0.34,WUHU216HW,2013-06-03 09:32:00,
2013-06-03 05:37:00,67.3,62.6,29.99,West,270,0.0,0.4,85,0.24,,,0.34,WUHU216HW,2013-06-03 09:37:00,
2013-06-03 05:42:00,67.3,62.6,29.99,SW,225,0.0,0.0,85,0.24,,,0.34,WUHU216HW,2013-06-03 09:42:00,
2013-06-03 05:47:00,67.3,62.6,29.99,SE,135,0.4,0.4,85,0.24,,,0.34,WUHU216HW,2013-06-03 09:47:00,
2013-06-03 05:52:00,67.3,62.6,29.99,WSW,248,0.4,0.4,85,0.24,,,0.34,WUHU216HW,2013-06-03 09:52:00,
2013-06-03 05:57:00,67.3,62.6,29.99,NW,315,0.0,0.4,85,0.21,,,0.34,WUHU216HW,2013-06-03 09:57:00,
2013-06-03 06:02:00,67.5,62.8,29.99,SW,225,0.7,0.9,85,0.14,,,0.34,WUHU216HW,2013-06-03 10:02:00,
2013-06-03 06:07:00,67.5,62.8,30.00,WSW,248,0.0,0.9,85,0.07,,,0.34,WUHU216HW,2013-06-03 10:07:00,
2013-06-03 06:12:00,67.5,62.8,30.00,SW,225,0.2,0.7,85,0.02,,,0.34,WUHU216HW,2013-06-03 10:12:00,
2013-06-03 06:17:00,67.5,62.8,29.99,SW,225,0.4,0.7,85,0.00,,,0.34,WUHU216HW,2013-06-03 10:17:00,
2013-06-03 06:22:00,67.7,63.0,29.99,South,180,0.4,0.7,85,0.00,,,0.34,WUHU216HW,2013-06-03 10:22:00,
2013-06-03 06:27:00,67.7,63.0,29.99,SSE,158,0.7,0.7,85,0.00,,,0.34,WUHU216HW,2013-06-03 10:27:00,
2013-06-03 06:32:00,67.7,63.0,29.99,SW,225,0.9,0.9,85,0.00,,,0.34,WUHU216HW,2013-06-03 10:32:00,
2013-06-03 06:37:00,67.7,63.0,29.99,SW,225,0.0,0.9,85,0.00,,,0.34,WUHU216HW,2013-06-03 10:37:00,
2013-06-03 06:42:00,67.5,62.8,29.99,SW,225,0.7,0.9,85,0.00,,,0.34,WUHU216HW,2013-06-03 10:42:00,
2013-06-03 06:47:00,67.5,62.8,29.99,SW,225,1.8,1.8,85,0.00,,,0.34,WUHU216HW,2013-06-03 10:47:00,
2013-06-03 06:52:00,67.7,63.0,29.99,SSE,158,1.1,1.8,85,0.00,,,0.34,WUHU216HW,2013-06-03 10:52:00,
2013-06-03 06:57:00,67.7,63.0,29.99,West,270,0.0,1.1,85,0.00,,,0.34,WUHU216HW,2013-06-03 10:57:00,
2013-06-03 07:02:00,67.5,62.8,29.99,SW,225,1.6,1.6,85,0.00,,,0.34,WUHU216HW,2013-06-03 11:02:00,
2013-06-03 07:07:00,67.7,62.6,29.99,SW,225,0.0,1.6,84,0.00,,,0.34,WUHU216HW,2013-06-03 11:07:00,
2013-06-03 07:12:00,67.5,62.5,29.99,NNW,338,0.2,2.2,84,0.00,,,0.34,WUHU216HW,2013-06-03 11:12:00,
2013-06-03 07:17:00,67.7,62.6,29.99,SSW,203,2.0,2.2,84,0.00,,,0.34,WUHU216HW,2013-06-03 11:17:00,
2013-06-03 07:22:00,67.7,62.6,29.99,SW,225,0.9,2.0,84,0.00,,,0.34,WUHU216HW,2013-06-03 11:22:00,
2013-06-03 07:27:00,67.7,62.6,30.00,SW,225,1.8,2.0,84,0.00,,,0.34,WUHU216HW,2013-06-03 11:27:00,
2013-06-03 07:32:00,67.7,62.6,29.99,SW,225,1.1,1.8,84,0.00,,,0.34,WUHU216HW,2013-06-03 11:32:00,
2013-06-03 07:37:00,67.7,62.6,30.00,SSW,203,0.4,1.8,84,0.00,,,0.34,WUHU216HW,2013-06-03 11:37:00,
2013-06-03 07:42:00,67.7,62.6,29.99,SW,225,0.0,2.0,84,0.01,,,0.34,WUHU216HW,2013-06-03 11:42:00,
2013-06-03 07:47:00,67.7,62.6,30.00,SSW,203,0.9,2.0,84,0.01,,,0.35,WUHU216HW,2013-06-03 11:47:00,
2013-06-03 07:52:00,67.7,62.6,30.00,South,180,0.7,0.9,84,0.01,,,0.35,WUHU216HW,2013-06-03 11:52:00,
2013-06-03 07:57:00,67.9,62.8,30.00,South,180,0.0,0.9,84,0.01,,,0.35,WUHU216HW,2013-06-03 11:57:00,
2013-06-03 08:02:00,67.9,62.8,30.00,SE,135,0.4,0.4,84,0.02,,,0.36,WUHU216HW,2013-06-03 12:02:00,
2013-06-03 08:07:00,67.9,62.8,30.00,SW,225,0.7,0.9,84,0.02,,,0.36,WUHU216HW,2013-06-03 12:07:00,
2013-06-03 08:12:00,68.0,63.0,30.00,SW,225,0.4,1.8,84,0.02,,,0.36,WUHU216HW,2013-06-03 12:12:00,
2013-06-03 08:18:00,68.0,63.0,30.00,SSE,158,0.2,1.8,84,0.02,,,0.36,WUHU216HW,2013-06-03 12:18:00,
2013-06-03 08:23:00,68.0,63.0,30.00,SSE,158,0.9,0.9,84,0.03,,,0.37,WUHU216HW,2013-06-03 12:23:00,
2013-06-03 08:28:00,68.2,63.2,30.00,SSE,158,0.0,0.9,84,0.03,,,0.37,WUHU216HW,2013-06-03 12:28:00,
2013-06-03 08:33:00,68.2,63.2,30.00,SSE,158,0.0,0.0,84,0.03,,,0.37,WUHU216HW,2013-06-03 12:33:00,
2013-06-03 08:57:00,68.8,63.4,30.00,West,270,0.2,0.2,83,0.01,,,0.37,WUHU216HW,2013-06-03 12:57:00,
2013-06-03 09:02:00,68.8,63.4,30.00,SE,135,0.4,0.4,83,0.01,,,0.37,WUHU216HW,2013-06-03 13:02:00,
2013-06-03 09:07:00,68.9,63.5,30.00,SSW,203,0.9,0.9,83,0.01,,,0.37,WUHU216HW,2013-06-03 13:07:00,
2013-06-03 09:12:00,68.9,63.5,30.01,East,90,0.7,1.8,83,0.01,,,0.37,WUHU216HW,2013-06-03 13:12:00,
2013-06-03 09:17:00,69.1,63.7,30.01,NW,315,1.3,1.8,83,0.01,,,0.37,WUHU216HW,2013-06-03 13:17:00,
2013-06-03 09:22:00,69.1,63.4,30.01,SW,225,0.0,1.3,82,0.01,,,0.38,WUHU216HW,2013-06-03 13:22:00,
2013-06-03 09:27:00,69.1,63.4,30.01,SW,225,0.0,1.3,82,0.01,,,0.38,WUHU216HW,2013-06-03 13:27:00,
2013-06-03 09:32:00,69.1,63.4,30.01,SW,225,0.4,0.4,82,0.01,,,0.38,WUHU216HW,2013-06-03 13:32:00,
2013-06-03 09:37:00,69.1,63.4,30.01,SSE,158,0.4,0.4,82,0.01,,,0.38,WUHU216HW,2013-06-03 13:37:00,
2013-06-03 09:42:00,69.1,63.4,30.00,ESE,113,1.3,1.3,82,0.01,,,0.38,WUHU216HW,2013-06-03 13:42:00,
2013-06-03 09:47:00,69.5,63.7,30.00,SW,225,0.4,1.3,82,0.01,,,0.38,WUHU216HW,2013-06-03 13:47:00,
2013-06-03 09:52:00,69.5,63.7,30.00,SW,225,0.9,0.9,82,0.01,,,0.38,WUHU216HW,2013-06-03 13:52:00,
2013-06-03 09:57:00,69.8,63.7,30.00,SSW,203,1.1,1.1,81,0.01,,,0.38,WUHU216HW,2013-06-03 13:57:00,
2013-06-03 10:02:00,70.0,63.9,30.00,SW,225,0.0,1.1,81,0.01,,,0.38,WUHU216HW,2013-06-03 14:02:00,
2013-06-03 10:07:00,70.2,64.1,29.99,SSE,158,0.9,1.1,81,0.01,,,0.38,WUHU216HW,2013-06-03 14:07:00,
2013-06-03 10:12:00,70.4,64.3,29.99,SE,135,0.9,1.1,81,0.01,,,0.38,WUHU216HW,2013-06-03 14:12:00,
2013-06-03 10:17:00,70.6,64.5,29.99,SW,225,1.1,1.1,81,0.00,,,0.38,WUHU216HW,2013-06-03 14:17:00,
2013-06-03 10:22:00,70.7,64.3,30.00,SW,225,0.7,1.1,80,0.00,,,0.38,WUHU216HW,2013-06-03 14:22:00,
2013-06-03 10:27:00,71.1,64.6,30.00,South,180,0.4,1.1,80,0.00,,,0.38,WUHU216HW,2013-06-03 14:27:00,
2013-06-03 10:32:00,71.3,64.8,30.00,SSW,203,1.3,2.2,80,0.00,,,0.38,WUHU216HW,2013-06-03 14:32:00,
2013-06-03 10:37:00,71.5,65.0,29.99,SSW,203,1.1,1.3,80,0.00,,,0.38,WUHU216HW,2013-06-03 14:37:00,
2013-06-03 10:42:00,71.5,65.0,30.00,WSW,248,2.0,2.0,80,0.00,,,0.38,WUHU216HW,2013-06-03 14:42:00,
2013-06-03 10:47:00,71.5,64.6,30.00,SW,225,1.1,2.0,79,0.00,,,0.38,WUHU216HW,2013-06-03 14:47:00,
2013-06-03 10:52:00,71.5,64.6,30.00,WSW,248,0.0,1.1,79,0.00,,,0.38,WUHU216HW,2013-06-03 14:52:00,
2013-06-03 10:57:00,71.6,64.8,29.99,SW,225,0.0,1.1,79,0.00,,,0.38,WUHU216HW,2013-06-03 14:57:00,
2013-06-03 11:02:00,71.6,64.8,29.99,SW,225,0.4,0.7,79,0.00,,,0.38,WUHU216HW,2013-06-03 15:02:00,
2013-06-03 11:07:00,71.8,64.6,30.00,SW,225,0.4,1.6,78,0.00,,,0.38,WUHU216HW,2013-06-03 15:07:00,
2013-06-03 11:12:00,72.0,64.8,30.00,SW,225,0.4,1.6,78,0.00,,,0.38,WUHU216HW,2013-06-03 15:12:00,
2013-06-03 11:17:00,72.0,64.8,30.00,WNW,293,1.8,1.8,78,0.00,,,0.38,WUHU216HW,2013-06-03 15:17:00,
2013-06-03 11:22:00,72.2,64.5,30.00,South,180,0.7,2.0,77,0.00,,,0.38,WUHU216HW,2013-06-03 15:22:00,
2013-06-03 11:27:00,72.0,64.4,30.00,SSW,203,2.7,2.7,77,0.00,,,0.38,WUHU216HW,2013-06-03 15:27:00,
2013-06-03 11:32:00,72.0,64.4,30.00,SW,225,0.4,2.7,77,0.00,,,0.38,WUHU216HW,2013-06-03 15:32:00,
2013-06-03 11:37:00,72.0,64.4,29.99,SSE,158,0.2,2.7,77,0.00,,,0.38,WUHU216HW,2013-06-03 15:37:00,
2013-06-03 11:42:00,72.0,64.4,30.00,SSW,203,0.4,1.1,77,0.00,,,0.38,WUHU216HW,2013-06-03 15:42:00,
2013-06-03 11:47:00,72.2,64.5,30.00,SSW,203,0.0,1.1,77,0.00,,,0.38,WUHU216HW,2013-06-03 15:47:00,
2013-06-03 11:53:00,72.2,64.5,30.00,SSW,203,0.0,0.4,77,0.00,,,0.38,WUHU216HW,2013-06-03 15:53:00,
2013-06-03 11:58:00,72.0,64.4,29.99,SW,225,0.0,0.0,77,0.01,,,0.39,WUHU216HW,2013-06-03 15:58:00,
2013-06-03 12:03:00,71.8,64.2,29.99,SW,225,0.0,1.1,77,0.01,,,0.39,WUHU216HW,2013-06-03 16:03:00,
2013-06-03 12:08:00,71.8,64.2,29.98,SW,225,0.7,1.1,77,0.01,,,0.39,WUHU216HW,2013-06-03 16:08:00,
2013-06-03 12:13:00,71.8,64.2,29.98,SW,225,0.2,0.7,77,0.01,,,0.39,WUHU216HW,2013-06-03 16:13:00,
2013-06-03 12:18:00,72.0,64.4,29.98,NW,315,0.7,0.7,77,0.01,,,0.39,WUHU216HW,2013-06-03 16:18:00,
2013-06-03 12:23:00,72.2,64.5,29.97,West,270,0.2,0.7,77,0.01,,,0.39,WUHU216HW,2013-06-03 16:23:00,
2013-06-03 12:28:00,72.4,64.7,29.98,South,180,2.5,2.5,77,0.01,,,0.39,WUHU216HW,2013-06-03 16:28:00,
2013-06-03 12:33:00,72.2,64.2,29.97,SSW,203,0.4,2.5,76,0.01,,,0.39,WUHU216HW,2013-06-03 16:33:00,
2013-06-03 12:38:00,72.2,64.2,29.98,WSW,248,0.0,2.5,76,0.01,,,0.39,WUHU216HW,2013-06-03 16:38:00,
2013-06-03 12:43:00,72.2,64.2,29.98,WSW,248,0.0,1.8,76,0.01,,,0.39,WUHU216HW,2013-06-03 16:43:00,
2013-06-03 12:48:00,72.4,64.7,29.98,SSW,203,0.0,0.0,77,0.01,,,0.39,WUHU216HW,2013-06-03 16:48:00,
2013-06-03 12:53:00,72.2,63.8,29.98,SSW,203,0.0,0.4,75,0.00,,,0.39,WUHU216HW,2013-06-03 16:53:00,
2013-06-03 12:58:00,72.2,63.8,29.98,SSW,203,0.0,0.4,75,0.00,,,0.39,WUHU216HW,2013-06-03 16:58:00,
2013-06-03 13:03:00,72.2,63.8,29.98,NNW,338,0.0,0.4,75,0.00,,,0.39,WUHU216HW,2013-06-03 17:03:00,
2013-06-03 13:08:00,72.2,63.8,29.98,NNW,338,0.0,0.4,75,0.00,,,0.39,WUHU216HW,2013-06-03 17:08:00,
2013-06-03 13:13:00,72.4,64.4,29.98,NNW,338,0.0,0.0,76,0.00,,,0.39,WUHU216HW,2013-06-03 17:13:00,
2013-06-03 13:18:00,72.5,64.5,29.98,NNW,338,0.2,0.2,76,0.00,,,0.39,WUHU216HW,2013-06-03 17:18:00,
2013-06-03 13:23:00,73.1,64.7,29.97,SW,225,0.0,1.3,75,0.00,,,0.39,WUHU216HW,2013-06-03 17:23:00,
2013-06-03 13:28:00,73.6,65.3,29.97,SW,225,0.0,1.3,75,0.00,,,0.39,WUHU216HW,2013-06-03 17:28:00,
2013-06-03 13:33:00,74.2,65.8,29.98,SW,225,1.8,1.8,75,0.00,,,0.39,WUHU216HW,2013-06-03 17:33:00,
2013-06-03 13:38:00,74.5,66.1,29.98,SW,225,0.9,1.8,75,0.00,,,0.39,WUHU216HW,2013-06-03 17:38:00,
2013-06-03 13:43:00,74.7,66.2,29.98,ESE,113,0.4,1.8,75,0.00,,,0.39,WUHU216HW,2013-06-03 17:43:00,
2013-06-03 13:48:00,74.9,66.4,29.98,NW,315,0.9,1.1,75,0.00,,,0.39,WUHU216HW,2013-06-03 17:48:00,
2013-06-03 13:53:00,75.1,66.3,29.97,SSE,158,0.4,1.1,74,0.00,,,0.39,WUHU216HW,2013-06-03 17:53:00,
2013-06-03 13:58:00,75.1,66.3,29.98,SSE,158,0.9,0.9,74,0.00,,,0.39,WUHU216HW,2013-06-03 17:58:00,
2013-06-03 14:03:00,75.2,66.4,29.97,SSE,158,0.0,0.9,74,0.00,,,0.39,WUHU216HW,2013-06-03 18:03:00,
2013-06-03 14:08:00,75.4,66.6,29.98,SE,135,0.2,0.9,74,0.00,,,0.39,WUHU216HW,2013-06-03 18:08:00,
2013-06-03 14:13:00,75.6,66.7,29.97,South,180,1.8,1.8,74,0.00,,,0.39,WUHU216HW,2013-06-03 18:13:00,
2013-06-03 14:18:00,75.6,66.7,29.97,SE,135,1.8,1.8,74,0.00,,,0.39,WUHU216HW,2013-06-03 18:18:00,
2013-06-03 14:23:00,76.0,67.1,29.97,SE,135,0.0,1.8,74,0.00,,,0.39,WUHU216HW,2013-06-03 18:23:00,
2013-06-03 14:28:00,76.1,66.9,29.97,SE,135,1.8,1.8,73,0.00,,,0.39,WUHU216HW,2013-06-03 18:28:00,
2013-06-03 14:33:00,76.1,66.9,29.97,SSW,203,0.9,2.0,73,0.00,,,0.39,WUHU216HW,2013-06-03 18:33:00,
2013-06-03 14:38:00,76.0,67.1,29.97,SSE,158,2.2,2.2,74,0.00,,,0.39,WUHU216HW,2013-06-03 18:38:00,
2013-06-03 14:43:00,76.0,67.1,29.97,SE,135,1.6,2.2,74,0.00,,,0.39,WUHU216HW,2013-06-03 18:43:00,
2013-06-03 14:48:00,75.6,66.7,29.97,South,180,1.6,2.5,74,0.00,,,0.39,WUHU216HW,2013-06-03 18:48:00,
2013-06-03 14:53:00,75.4,66.6,29.97,SE,135,0.9,2.5,74,0.00,,,0.39,WUHU216HW,2013-06-03 18:53:00,
2013-06-03 14:58:00,75.4,66.6,29.97,SE,135,1.1,2.2,74,0.00,,,0.39,WUHU216HW,2013-06-03 18:58:00,
2013-06-03 15:03:00,75.2,66.4,29.97,SE,135,1.1,1.6,74,0.00,,,0.39,WUHU216HW,2013-06-03 19:03:00,
2013-06-03 15:08:00,75.2,66.4,29.97,SSE,158,0.2,1.1,74,0.00,,,0.39,WUHU216HW,2013-06-03 19:08:00,
2013-06-03 15:13:00,75.2,66.4,29.97,SE,135,0.7,1.1,74,0.00,,,0.39,WUHU216HW,2013-06-03 19:13:00,
2013-06-03 15:18:00,75.6,66.7,29.97,SSE,158,2.9,2.9,74,0.00,,,0.39,WUHU216HW,2013-06-03 19:18:00,
2013-06-03 15:23:00,76.0,67.1,29.97,NNE,23,2.0,2.9,74,0.00,,,0.39,WUHU216HW,2013-06-03 19:23:00,
2013-06-03 15:28:00,76.0,67.1,29.97,SE,135,3.8,3.8,74,0.00,,,0.39,WUHU216HW,2013-06-03 19:28:00,
2013-06-03 15:33:00,76.0,66.7,29.97,SE,135,0.9,3.8,73,0.00,,,0.39,WUHU216HW,2013-06-03 19:33:00,
2013-06-03 15:38:00,75.6,66.7,29.96,SSW,203,1.6,3.8,74,0.00,,,0.39,WUHU216HW,2013-06-03 19:38:00,
2013-06-03 15:43:00,75.2,66.4,29.96,WSW,248,1.8,3.8,74,0.00,,,0.39,WUHU216HW,2013-06-03 19:43:00,
2013-06-03 15:48:00,75.2,66.4,29.96,South,180,3.4,3.4,74,0.00,,,0.39,WUHU216HW,2013-06-03 19:48:00,
2013-06-03 15:53:00,74.9,66.1,29.96,WSW,248,2.5,3.4,74,0.00,,,0.39,WUHU216HW,2013-06-03 19:53:00,
2013-06-03 15:58:00,74.7,65.9,29.96,ESE,113,1.8,3.4,74,0.00,,,0.39,WUHU216HW,2013-06-03 19:58:00,
2013-06-03 16:03:00,74.5,65.7,29.96,SSE,158,1.6,2.5,74,0.00,,,0.39,WUHU216HW,2013-06-03 20:03:00,
2013-06-03 16:08:00,74.5,65.7,29.96,South,180,0.9,1.6,74,0.00,,,0.39,WUHU216HW,2013-06-03 20:08:00,
2013-06-03 16:13:00,74.7,65.9,29.96,ESE,113,3.8,3.8,74,0.00,,,0.39,WUHU216HW,2013-06-03 20:13:00,
2013-06-03 16:18:00,74.5,65.7,29.96,WSW,248,1.1,3.8,74,0.00,,,0.39,WUHU216HW,2013-06-03 20:18:00,
2013-06-03 16:23:00,74.5,65.7,29.96,South,180,1.8,3.8,74,0.00,,,0.39,WUHU216HW,2013-06-03 20:23:00,
2013-06-03 16:28:00,74.7,65.9,29.96,SSE,158,3.6,4.0,74,0.00,,,0.39,WUHU216HW,2013-06-03 20:28:00,
2013-06-03 16:33:00,74.9,66.1,29.95,SSW,203,1.1,4.0,74,0.00,,,0.39,WUHU216HW,2013-06-03 20:33:00,
2013-06-03 16:38:00,74.7,65.9,29.95,SSE,158,3.8,3.8,74,0.00,,,0.39,WUHU216HW,2013-06-03 20:38:00,
2013-06-03 16:43:00,74.5,65.7,29.95,SE,135,0.4,3.8,74,0.00,,,0.39,WUHU216HW,2013-06-03 20:43:00,
2013-06-03 16:48:00,74.5,65.7,29.95,SSW,203,0.4,1.3,74,0.00,,,0.39,WUHU216HW,2013-06-03 20:48:00,
2013-06-03 16:53:00,74.3,65.9,29.95,SE,135,0.9,0.9,75,0.00,,,0.39,WUHU216HW,2013-06-03 20:53:00,
2013-06-03 16:58:00,74.2,65.8,29.95,SSE,158,1.8,1.8,75,0.00,,,0.39,WUHU216HW,2013-06-03 20:58:00,
2013-06-03 17:03:00,73.8,65.4,29.95,SW,225,0.4,1.8,75,0.00,,,0.39,WUHU216HW,2013-06-03 21:03:00,
2013-06-03 17:08:00,73.4,65.1,29.95,SSE,158,1.8,1.8,75,0.00,,,0.39,WUHU216HW,2013-06-03 21:08:00,
2013-06-03 17:13:00,73.1,64.7,29.95,SE,135,2.9,2.9,75,0.00,,,0.39,WUHU216HW,2013-06-03 21:13:00,
2013-06-03 17:18:00,72.9,64.5,29.95,SSE,158,0.4,2.9,75,0.00,,,0.39,WUHU216HW,2013-06-03 21:18:00,
2013-06-03 17:23:00,72.7,64.4,29.94,SE,135,1.6,2.0,75,0.00,,,0.39,WUHU216HW,2013-06-03 21:23:00,
2013-06-03 17:28:00,72.5,64.2,29.94,SE,135,0.4,2.0,75,0.00,,,0.39,WUHU216HW,2013-06-03 21:28:00,
2013-06-03 17:33:00,72.5,64.2,29.94,ESE,113,0.7,0.7,75,0.00,,,0.39,WUHU216HW,2013-06-03 21:33:00,
2013-06-03 17:38:00,72.5,64.2,29.94,SSW,203,0.4,0.7,75,0.00,,,0.39,WUHU216HW,2013-06-03 21:38:00,
2013-06-03 17:43:00,72.4,64.4,29.93,SE,135,0.4,1.8,76,0.00,,,0.39,WUHU216HW,2013-06-03 21:43:00,
2013-06-03 17:48:00,72.4,64.4,29.94,SSW,203,0.0,1.8,76,0.00,,,0.39,WUHU216HW,2013-06-03 21:48:00,
2013-06-03 17:53:00,72.2,63.8,29.94,SSE,158,1.8,1.8,75,0.00,,,0.39,WUHU216HW,2013-06-03 21:53:00,
2013-06-03 17:58:00,72.4,64.4,29.94,SE,135,0.0,1.8,76,0.00,,,0.39,WUHU216HW,2013-06-03 21:58:00,
2013-06-03 18:03:00,72.4,64.4,29.94,ESE,113,0.0,1.8,76,0.00,,,0.39,WUHU216HW,2013-06-03 22:03:00,
2013-06-03 18:08:00,72.5,64.5,29.95,SE,135,0.4,0.4,76,0.00,,,0.39,WUHU216HW,2013-06-03 22:08:00,
2013-06-03 18:13:00,72.4,64.4,29.94,SE,135,0.9,0.9,76,0.00,,,0.39,WUHU216HW,2013-06-03 22:13:00,
2013-06-03 18:18:00,72.5,64.5,29.95,SE,135,0.7,0.9,76,0.00,,,0.39,WUHU216HW,2013-06-03 22:18:00,
2013-06-03 18:23:00,72.5,64.5,29.95,SE,135,0.0,0.7,76,0.00,,,0.39,WUHU216HW,2013-06-03 22:23:00,
2013-06-03 18:28:00,72.7,64.7,29.95,SE,135,0.0,0.7,76,0.00,,,0.39,WUHU216HW,2013-06-03 22:28:00,
2013-06-03 18:33:00,72.5,64.5,29.95,SE,135,0.0,0.0,76,0.00,,,0.39,WUHU216HW,2013-06-03 22:33:00,
2013-06-03 18:38:00,72.7,64.7,29.95,SE,135,0.0,0.0,76,0.00,,,0.39,WUHU216HW,2013-06-03 22:38:00,
2013-06-03 18:43:00,72.5,64.5,29.95,SE,135,0.0,0.0,76,0.00,,,0.39,WUHU216HW,2013-06-03 22:43:00,
2013-06-03 18:52:00,72.5,64.5,29.95,SE,135,0.4,0.4,76,0.00,,,0.39,WUHU216HW,2013-06-03 22:52:00,
2013-06-03 18:57:00,72.4,64.4,29.95,East,90,0.2,0.4,76,0.00,,,0.39,WUHU216HW,2013-06-03 22:57:00,
2013-06-03 19:02:00,72.4,64.4,29.95,North,0,0.7,0.7,76,0.00,,,0.39,WUHU216HW,2013-06-03 23:02:00,
2013-06-03 19:07:00,72.0,63.6,29.96,North,0,0.4,0.7,75,0.00,,,0.39,WUHU216HW,2013-06-03 23:07:00,
2013-06-03 19:12:00,71.3,62.6,29.97,NW,315,2.9,2.9,74,0.02,,,0.39,WUHU216HW,2013-06-03 23:12:00,
2013-06-03 19:17:00,70.2,61.8,29.97,NNW,338,3.1,3.1,75,0.03,,,0.42,WUHU216HW,2013-06-03 23:17:00,
2013-06-03 19:22:00,68.8,60.8,29.98,NW,315,2.5,3.1,76,0.07,,,0.46,WUHU216HW,2013-06-03 23:22:00,
2013-06-03 19:27:00,67.7,59.9,29.98,NW,315,0.4,3.1,76,0.28,,,0.67,WUHU216HW,2013-06-03 23:27:00,
2013-06-03 19:32:00,67.1,59.7,29.97,SE,135,2.0,2.5,77,0.40,,,0.75,WUHU216HW,2013-06-03 23:32:00,
2013-06-03 19:37:00,67.1,59.7,29.97,SE,135,1.6,2.0,77,0.42,,,0.81,WUHU216HW,2013-06-03 23:37:00,
2013-06-03 19:43:00,67.3,59.9,29.97,ENE,68,0.7,2.0,77,0.44,,,0.83,WUHU216HW,2013-06-03 23:43:00,
2013-06-03 19:48:00,67.3,59.9,29.97,ENE,68,1.1,1.6,77,0.44,,,0.83,WUHU216HW,2013-06-03 23:48:00,
2013-06-03 19:53:00,67.3,59.9,29.97,NE,45,0.0,1.1,77,0.44,,,0.83,WUHU216HW,2013-06-03 23:53:00,
2013-06-03 19:58:00,67.1,59.7,29.97,NE,45,0.4,0.7,77,0.44,,,0.83,WUHU216HW,2013-06-03 23:58:00,
2013-06-03 20:05:00,67.1,59.7,29.97,NE,45,0.4,0.7,77,0.44,,,0.83,WUHU216HW,2013-06-04 00:05:00,
2013-06-03 20:10:00,67.0,59.5,29.97,NNE,23,0.0,0.7,77,0.42,,,0.83,WUHU216HW,2013-06-04 00:10:00,
2013-06-03 20:15:00,67.0,60.0,29.97,NNE,23,0.0,0.4,78,0.41,,,0.83,WUHU216HW,2013-06-04 00:15:00,
2013-06-03 20:20:00,67.1,60.1,29.97,NNE,23,0.0,0.2,78,0.16,,,0.83,WUHU216HW,2013-06-04 00:20:00,
2013-06-03 20:25:00,67.1,60.1,29.97,NNE,23,0.0,0.0,78,0.08,,,0.83,WUHU216HW,2013-06-04 00:25:00,
2013-06-03 20:30:00,67.1,60.1,29.97,NNE,23,0.0,0.0,78,0.08,,,0.83,WUHU216HW,2013-06-04 00:30:00,
2013-06-03 20:35:00,67.1,60.1,29.97,NNE,23,0.0,0.0,78,0.02,,,0.83,WUHU216HW,2013-06-04 00:35:00,
2013-06-03 20:40:00,67.0,60.0,29.98,NNE,23,0.0,0.0,78,0.00,,,0.83,WUHU216HW,2013-06-04 00:40:00,
2013-06-03 20:45:00,67.0,60.0,29.98,NNE,23,0.0,0.0,78,0.00,,,0.83,WUHU216HW,2013-06-04 00:45:00,
2013-06-03 20:50:00,67.0,60.0,29.98,NNE,23,0.0,0.0,78,0.00,,,0.83,WUHU216HW,2013-06-04 00:50:00,
2013-06-03 20:55:00,67.1,60.1,29.98,NNE,23,0.0,0.0,78,0.00,,,0.83,WUHU216HW,2013-06-04 00:55:00,
2013-06-03 21:00:00,67.1,60.1,29.98,NNE,23,0.0,0.0,78,0.00,,,0.83,WUHU216HW,2013-06-04 01:00:00,
2013-06-03 21:05:00,67.0,60.0,29.99,NNE,23,0.0,0.0,78,0.00,,,0.83,WUHU216HW,2013-06-04 01:05:00,
2013-06-03 21:10:00,67.0,60.0,29.99,NNE,23,0.0,0.0,78,0.00,,,0.83,WUHU216HW,2013-06-04 01:10:00,
2013-06-03 21:15:00,67.0,60.0,29.99,NNE,23,0.0,0.0,78,0.00,,,0.83,WUHU216HW,2013-06-04 01:15:00,
2013-06-03 21:20:00,67.0,60.0,29.99,NNE,23,0.0,0.0,78,0.00,,,0.83,WUHU216HW,2013-06-04 01:20:00,
2013-06-03 21:25:00,67.0,60.0,29.99,NNE,23,0.0,0.0,78,0.00,,,0.83,WUHU216HW,2013-06-04 01:25:00,
2013-06-03 21:30:00,67.0,60.0,29.99,NNE,23,0.0,0.0,78,0.00,,,0.83,WUHU216HW,2013-06-04 01:30:00,
2013-06-03 21:52:00,66.8,59.8,29.99,NNE,23,0.0,0.0,78,0.00,,,0.83,WUHU216HW,2013-06-04 01:52:00,
2013-06-03 21:57:00,66.8,59.8,29.99,NNE,23,0.0,0.0,78,0.00,,,0.83,WUHU216HW,2013-06-04 01:57:00,
2013-06-03 22:02:00,66.8,59.8,29.99,NNE,23,0.0,0.0,78,0.00,,,0.83,WUHU216HW,2013-06-04 02:02:00,
2013-06-03 22:07:00,66.8,59.8,29.99,NNE,23,0.0,0.0,78,0.00,,,0.83,WUHU216HW,2013-06-04 02:07:00,
2013-06-03 22:12:00,66.8,59.8,29.99,NNE,23,0.0,0.0,78,0.00,,,0.83,WUHU216HW,2013-06-04 02:12:00,
2013-06-03 22:17:00,66.8,59.8,29.99,NNE,23,0.0,0.0,78,0.00,,,0.83,WUHU216HW,2013-06-04 02:17:00,
2013-06-03 22:22:00,66.8,59.8,29.98,NNE,23,0.0,0.0,78,0.00,,,0.83,WUHU216HW,2013-06-04 02:22:00,
2013-06-03 22:27:00,66.8,59.8,29.98,NNE,23,0.0,0.0,78,0.00,,,0.83,WUHU216HW,2013-06-04 02:27:00,
2013-06-03 22:32:00,66.8,59.8,29.98,NNE,23,0.0,0.0,78,0.00,,,0.83,WUHU216HW,2013-06-04 02:32:00,
2013-06-03 22:37:00,66.8,59.8,29.98,NNE,23,0.0,0.0,78,0.00,,,0.83,WUHU216HW,2013-06-04 02:37:00,
2013-06-03 22:43:00,66.8,59.8,29.98,NNE,23,0.0,0.0,78,0.00,,,0.83,WUHU216HW,2013-06-04 02:43:00,
2013-06-03 22:48:00,66.6,59.1,29.99,NNE,23,0.0,0.0,77,0.00,,,0.83,WUHU216HW,2013-06-04 02:48:00,
2013-06-03 22:53:00,66.6,59.1,29.99,NNE,23,0.0,0.0,77,0.00,,,0.83,WUHU216HW,2013-06-04 02:53:00,
2013-06-03 22:58:00,66.6,59.1,29.99,NNE,23,0.0,0.0,77,0.00,,,0.83,WUHU216HW,2013-06-04 02:58:00,
2013-06-03 23:30:00,66.8,59.3,30.00,NNE,23,0.0,0.0,77,0.00,,,0.83,WUHU216HW,2013-06-04 03:30:00,
2013-06-03 23:35:00,66.6,59.1,30.00,NNW,338,0.9,1.8,77,0.00,,,0.83,WUHU216HW,2013-06-04 03:35:00,
2013-06-03 23:40:00,66.6,59.1,30.00,North,0,1.1,1.8,77,0.00,,,0.83,WUHU216HW,2013-06-04 03:40:00,
2013-06-03 23:45:00,66.6,59.1,30.01,NNW,338,0.4,1.1,77,0.01,,,0.84,WUHU216HW,2013-06-04 03:45:00,
2013-06-03 23:50:00,66.6,59.1,30.01,North,0,1.6,1.6,77,0.01,,,0.84,WUHU216HW,2013-06-04 03:50:00,
2013-06-03 23:55:00,66.2,58.8,30.01,NNW,338,1.6,1.6,77,0.01,,,0.84,WUHU216HW,2013-06-04 03:55:00,